Hourly Data Report for March 28, 2019

MAYO A
YUKON TERRITORY
Current Station Operator: NAVCAN

63°36'59.000" N
135°52'06.000" W
503.80 m
2100701
71965
YMA

Download Data

Hourly Data (March 2019)
Hourly Data Report for March 28, 2019
TIME
LST
Temp Definition
°C
Dew Point Definition
°C
Rel Hum Definition
%
Precip. Amount Definition
mm

Wind Dir Definition
10's deg

Wind Spd Definition
km/h
Visibility Definition
km
Stn Press Definition
kPa
Hmdx Definition


Wind Chill Definition


Weather Definition


00:00 1.1 -2.4 78   24 3 32.2 96.28     LegendNANA
01:00 1.1 -2.3 78   29 6 32.2 96.27     Cloudy
02:00 2.3 -1.5 76   36 11 32.2 96.27     LegendNANA
03:00 1.7 -1.6 79   35 9 32.2 96.28     LegendNANA
04:00 1.6 -1.7 79   36 7 32.2 96.28     Cloudy
05:00 1.1 -2.2 78   5 7 32.2 96.28     LegendNANA
06:00 1.6 -1.8 78   1 9 32.2 96.26     LegendNANA
07:00 1.5 -1.9 78   1 10 32.2 96.25     Cloudy
08:00 0.7 -2.0 82   3 4 32.2 96.25     LegendNANA
09:00 2.3 -1.4 76   7 7 32.2 96.26     LegendNANA
10:00 3.8 -1.5 69   35 7 32.2 96.23     Cloudy
11:00 5.5 -1.4 61   2 7 32.2 96.18     LegendNANA
12:00 6.2 -1.3 59   35 7 32.2 96.15     LegendNANA
13:00 7.1 -0.6 58   36 4 32.2 96.12     Mostly Cloudy
14:00 7.9 -0.8 54   36 8 32.2 96.06     LegendNANA
15:00 8.2 -0.5 54   36 4 32.2 96.04     LegendNANA
16:00 8.1 -0.9 53   35 8 32.2 96.03     Cloudy
17:00 8.1 -0.9 53   36 5 32.2 96.01     LegendNANA
18:00 7.8 -1.0 54   33 4 32.2 95.99     LegendNANA
19:00 7.0 -0.6 59   36 2 32.2 95.99     Cloudy
20:00 5.1 0.2 71   26 4 32.2 95.97     LegendNANA
21:00 3.5 0.0 78   29 4 32.2 96.00     LegendNANA
22:00 3.2 -0.4 78   26 4 32.2 96.02     Cloudy
23:00 2.8 -0.8 77   36 2 32.2 96.05     LegendNANA

Notes on Data Quality.

Legend

  • E = Estimated
  • M = Missing
  • NA = Not Available*
  • [empty] = Indicates an unobserved value
Date modified: